| time (UTC) | temp C | wind direction | speed KPH | gust KPH | rain 1hr cm | rain 24hr cm | rain mn cm | humidity % | barometer mb |
| 20260901175503 | 13 | 224 | 8.0 | 16.1 | 0.00 | 0.00 | 0.00 | 71 | 1016.7 |
| 20260901175003 | 13 | 224 | 8.0 | 16.1 | 0.00 | 0.00 | 0.00 | 71 | 1016.7 |
| 20260901174503 | 13 | 224 | 8.0 | 14.5 | 0.00 | 0.00 | 0.00 | 71 | 1016.7 |
| 20260901174003 | 13 | 224 | 8.0 | 14.5 | 0.00 | 0.00 | 0.00 | 71 | 1016.6 |
| 20260901173503 | 13 | 224 | 6.4 | 12.9 | 0.00 | 0.00 | 0.00 | 71 | 1016.5 |
| 20260901173003 | 13 | 224 | 8.0 | 12.9 | 0.00 | 0.00 | 0.00 | 70 | 1016.5 |
| 20260901172503 | 13 | 224 | 8.0 | 14.5 | 0.00 | 0.00 | 0.00 | 71 | 1016.3 |
| 20260901172003 | 13 | 224 | 8.0 | 16.1 | 0.00 | 0.00 | 0.00 | 71 | 1016.3 |
| 20260901171503 | 13 | 224 | 8.0 | 16.1 | 0.00 | 0.00 | 0.00 | 79 | 1016.2 |
| 20260901171003 | 12 | 224 | 8.0 | 12.9 | 0.00 | 0.00 | 0.00 | 80 | 1016.2 |
| 20260901170503 | 12 | 224 | 6.4 | 11.3 | 0.00 | 0.00 | 0.00 | 79 | 1016.1 |
| 20260901170003 | 12 | 224 | 6.4 | 11.3 | 0.00 | 0.00 | 0.00 | 79 | 1016.1 |
| 20260901165503 | 12 | 224 | 8.0 | 14.5 | 0.00 | 0.00 | 0.00 | 79 | 1016.0 |
| 20260901165216 | 12 | 224 | 8.0 | 16.1 | 0.00 | 0.00 | 0.00 | 79 | 1015.9 |
| 20260901164503 | 12 | 224 | 6.4 | 16.1 | 0.00 | 0.00 | 0.00 | 79 | 1016.0 |
| 20260901164003 | 12 | 224 | 8.0 | 16.1 | 0.00 | 0.00 | 0.00 | 80 | 1015.9 |
| 20260901163503 | 12 | 224 | 9.7 | 16.1 | 0.00 | 0.00 | 0.00 | 80 | 1015.9 |
| 20260901163213 | 12 | 224 | 9.7 | 14.5 | 0.00 | 0.00 | 0.00 | 80 | 1015.9 |
| 20260901162716 | 12 | 224 | 9.7 | 17.7 | 0.00 | 0.00 | 0.00 | 81 | 1015.9 |
| 20260901162003 | 12 | 224 | 9.7 | 17.7 | 0.00 | 0.00 | 0.00 | 81 | 1015.9 |
| 20260901161717 | 12 | 224 | 8.0 | 16.1 | 0.00 | 0.00 | 0.00 | 82 | 1015.8 |
| 20260901161003 | 12 | 224 | 8.0 | 14.5 | 0.00 | 0.00 | 0.00 | 81 | 1015.8 |
| 20260901160713 | 12 | 224 | 9.7 | 14.5 | 0.00 | 0.00 | 0.00 | 82 | 1015.8 |
| 20260901160004 | 11 | 224 | 9.7 | 16.1 | 0.00 | 0.00 | 0.00 | 83 | 1016.0 |
| 20260901155503 | 11 | 224 | 8.0 | 16.1 | 0.00 | 0.00 | 0.00 | 83 | 1015.9 |
| 20260901155003 | 11 | 224 | 8.0 | 17.7 | 0.00 | 0.00 | 0.00 | 83 | 1015.8 |
| 20260901154503 | 11 | 224 | 8.0 | 17.7 | 0.00 | 0.00 | 0.00 | 82 | 1015.7 |
| 20260901154003 | 11 | 224 | 8.0 | 16.1 | 0.00 | 0.00 | 0.00 | 82 | 1015.7 |
| 20260901153503 | 11 | 224 | 8.0 | 16.1 | 0.00 | 0.00 | 0.00 | 83 | 1015.6 |
| 20260901153003 | 11 | 224 | 6.4 | 14.5 | 0.00 | 0.00 | 0.00 | 72 | 1015.6 |
| 20260901152717 | 11 | 224 | 6.4 | 11.3 | 0.00 | 0.00 | 0.00 | 73 | 1015.5 |
| 20260901152003 | 11 | 224 | 9.7 | 16.1 | 0.00 | 0.00 | 0.00 | 73 | 1015.5 |
| 20260901151503 | 11 | 224 | 8.0 | 17.7 | 0.00 | 0.00 | 0.00 | 72 | 1015.4 |
| 20260901151003 | 11 | 224 | 8.0 | 17.7 | 0.00 | 0.00 | 0.00 | 84 | 1015.3 |
| 20260901150714 | 11 | 224 | 8.0 | 16.1 | 0.00 | 0.00 | 0.00 | 84 | 1015.3 |
| 20260901150003 | 11 | 224 | 8.0 | 16.1 | 0.00 | 0.00 | 0.00 | 84 | 1015.4 |
| 20260901145714 | 11 | 224 | 6.4 | 14.5 | 0.00 | 0.00 | 0.00 | 73 | 1015.4 |
| 20260901145003 | 11 | 224 | 6.4 | 14.5 | 0.00 | 0.00 | 0.00 | 74 | 1015.3 |
| 20260901144715 | 11 | 224 | 6.4 | 14.5 | 0.00 | 0.00 | 0.00 | 74 | 1015.3 |
| 20260901144003 | 11 | 224 | 8.0 | 12.9 | 0.00 | 0.00 | 0.00 | 74 | 1015.2 |
| 20260901143503 | 11 | 224 | 8.0 | 12.9 | 0.00 | 0.00 | 0.00 | 74 | 1015.1 |
| 20260901143003 | 11 | 224 | 6.4 | 11.3 | 0.00 | 0.00 | 0.00 | 74 | 1015.0 |
| 20260901142503 | 11 | 224 | 6.4 | 12.9 | 0.00 | 0.00 | 0.00 | 74 | 1014.9 |
| 20260901142003 | 11 | 224 | 8.0 | 14.5 | 0.00 | 0.00 | 0.00 | 74 | 1014.8 |
| 20260901141503 | 11 | 224 | 6.4 | 14.5 | 0.00 | 0.00 | 0.00 | 74 | 1014.8 |
| 20260901141216 | 11 | 224 | 6.4 | 11.3 | 0.00 | 0.00 | 0.00 | 74 | 1014.7 |
| 20260901140714 | 11 | 224 | 6.4 | 12.9 | 0.00 | 0.00 | 0.00 | 74 | 1014.7 |
| 20260901140004 | 11 | 224 | 6.4 | 14.5 | 0.00 | 0.00 | 0.00 | 74 | 1014.6 |
| 20260901135503 | 11 | 224 | 8.0 | 14.5 | 0.00 | 0.00 | 0.00 | 74 | 1014.5 |
| 20260901135003 | 11 | 224 | 9.7 | 17.7 | 0.00 | 0.00 | 0.00 | 74 | 1014.4 |
| 20260901134503 | 11 | 224 | 9.7 | 17.7 | 0.00 | 0.00 | 0.00 | 74 | 1014.4 |
| 20260901134003 | 11 | 224 | 8.0 | 12.9 | 0.00 | 0.00 | 0.00 | 74 | 1014.5 |
| 20260901133717 | 11 | 224 | 8.0 | 12.9 | 0.00 | 0.00 | 0.00 | 75 | 1014.4 |
| 20260901133003 | 11 | 224 | 6.4 | 12.9 | 0.00 | 0.00 | 0.00 | 75 | 1014.4 |
| 20260901132503 | 11 | 224 | 8.0 | 14.5 | 0.00 | 0.00 | 0.00 | 75 | 1014.3 |
| 20260901132003 | 11 | 224 | 8.0 | 14.5 | 0.00 | 0.00 | 0.00 | 88 | 1014.4 |
| 20260901131503 | 11 | 224 | 6.4 | 16.1 | 0.00 | 0.00 | 0.00 | 87 | 1014.3 |
| 20260901131003 | 11 | 224 | 6.4 | 16.1 | 0.00 | 0.00 | 0.00 | 75 | 1014.4 |
| 20260901130503 | 11 | 224 | 6.4 | 12.9 | 0.00 | 0.00 | 0.00 | 75 | 1014.4 |
| 20260901130003 | 11 | 224 | 6.4 | 12.9 | 0.00 | 0.00 | 0.00 | 75 | 1014.4 |
| 20260901125503 | 11 | 224 | 4.8 | 8.0 | 0.00 | 0.00 | 0.00 | 75 | 1014.4 |
| 20260901125003 | 11 | 224 | 4.8 | 12.9 | 0.00 | 0.00 | 0.00 | 75 | 1014.4 |
| 20260901124504 | 11 | 224 | 4.8 | 12.9 | 0.00 | 0.00 | 0.00 | 75 | 1014.3 |
| 20260901124003 | 11 | 224 | 4.8 | 9.7 | 0.00 | 0.00 | 0.00 | 76 | 1014.2 |
| 20260901123713 | 11 | 224 | 4.8 | 11.3 | 0.00 | 0.00 | 0.00 | 75 | 1014.2 |
| 20260901123003 | 11 | 224 | 4.8 | 11.3 | 0.00 | 0.00 | 0.00 | 75 | 1014.2 |
| 20260901122714 | 11 | 224 | 4.8 | 11.3 | 0.00 | 0.00 | 0.00 | 75 | 1014.1 |
| 20260901122003 | 11 | 224 | 4.8 | 11.3 | 0.00 | 0.00 | 0.00 | 75 | 1014.1 |
| 20260901121503 | 11 | 224 | 6.4 | 9.7 | 0.00 | 0.00 | 0.00 | 75 | 1014.1 |
| 20260901121212 | 11 | 224 | 6.4 | 9.7 | 0.00 | 0.00 | 0.00 | 76 | 1014.1 |
| 20260901120503 | 11 | 224 | 6.4 | 11.3 | 0.00 | 0.00 | 0.00 | 75 | 1014.2 |
| 20260901120213 | 11 | 224 | 4.8 | 11.3 | 0.00 | 0.00 | 0.00 | 76 | 1014.2 |
| 20260901115503 | 11 | 224 | 4.8 | 14.5 | 0.00 | 0.00 | 0.00 | 76 | 1014.1 |
| 20260901115003 | 11 | 224 | 6.4 | 14.5 | 0.00 | 0.00 | 0.00 | 76 | 1014.1 |
| 20260901114503 | 10 | 224 | 4.8 | 11.3 | 0.00 | 0.00 | 0.00 | 76 | 1014.3 |
| 20260901114003 | 10 | 224 | 4.8 | 11.3 | 0.00 | 0.00 | 0.00 | 76 | 1014.1 |
| 20260901113503 | 10 | 224 | 6.4 | 16.1 | 0.00 | 0.00 | 0.00 | 76 | 1014.3 |
| 20260901113003 | 10 | 224 | 6.4 | 16.1 | 0.00 | 0.00 | 0.00 | 76 | 1014.3 |
| 20260901112503 | 10 | 224 | 6.4 | 12.9 | 0.00 | 0.00 | 0.00 | 76 | 1014.3 |
| 20260901112003 | 10 | 224 | 6.4 | 14.5 | 0.00 | 0.00 | 0.00 | 76 | 1014.3 |
| 20260901111503 | 10 | 224 | 8.0 | 14.5 | 0.00 | 0.00 | 0.00 | 76 | 1014.3 |
| 20260901111003 | 10 | 224 | 8.0 | 19.3 | 0.00 | 0.00 | 0.00 | 76 | 1014.3 |
| 20260901110503 | 10 | 225 | 8.0 | 19.3 | 0.00 | 0.00 | 0.00 | 76 | 1014.3 |
| 20260901110003 | 10 | 225 | 8.0 | 14.5 | 0.00 | 0.00 | 0.00 | 76 | 1014.3 |
| 20260901105503 | 10 | 225 | 9.7 | 17.7 | 0.00 | 0.00 | 0.00 | 77 | 1014.3 |
| 20260901105003 | 10 | 225 | 9.7 | 17.7 | 0.00 | 0.00 | 0.00 | 77 | 1014.3 |
| 20260901104713 | 10 | 226 | 9.7 | 16.1 | 0.00 | 0.00 | 0.00 | 77 | 1014.3 |
| 20260901104003 | 11 | 226 | 8.0 | 14.5 | 0.00 | 0.00 | 0.00 | 77 | 1014.1 |
| 20260901103503 | 11 | 226 | 6.4 | 12.9 | 0.00 | 0.00 | 0.00 | 77 | 1014.1 |
| 20260901103003 | 11 | 226 | 4.8 | 11.3 | 0.00 | 0.00 | 0.00 | 77 | 1014.0 |
| 20260901102503 | 11 | 226 | 4.8 | 12.9 | 0.00 | 0.00 | 0.00 | 77 | 1014.0 |
| 20260901102003 | 11 | 226 | 6.4 | 14.5 | 0.00 | 0.00 | 0.00 | 77 | 1014.1 |
| 20260901101503 | 11 | 226 | 8.0 | 14.5 | 0.00 | 0.00 | 0.00 | 77 | 1014.0 |
| 20260901101003 | 11 | 226 | 8.0 | 14.5 | 0.00 | 0.00 | 0.00 | 77 | 1014.0 |
| 20260901100503 | 10 | 226 | 8.0 | 16.1 | 0.00 | 0.00 | 0.00 | 76 | 1014.0 |
| 20260901100003 | 10 | 226 | 8.0 | 17.7 | 0.00 | 0.00 | 0.00 | 77 | 1013.9 |
| 20260901095503 | 10 | 226 | 8.0 | 17.7 | 0.00 | 0.00 | 0.00 | 77 | 1013.9 |
| 20260901095003 | 10 | 226 | 8.0 | 17.7 | 0.00 | 0.00 | 0.00 | 77 | 1013.9 |
| 20260901094503 | 10 | 226 | 8.0 | 17.7 | 0.00 | 0.00 | 0.00 | 77 | 1013.8 |
| 20260901094003 | 10 | 226 | 9.7 | 19.3 | 0.00 | 0.00 | 0.00 | 77 | 1013.9 |
| 20260901093503 | 10 | 226 | 9.7 | 19.3 | 0.00 | 0.00 | 0.00 | 77 | 1013.8 |
| 20260901093003 | 10 | 226 | 9.7 | 20.9 | 0.00 | 0.00 | 0.00 | 77 | 1013.8 |
| 20260901092503 | 11 | 225 | 9.7 | 20.9 | 0.00 | 0.00 | 0.00 | 77 | 1013.8 |
| 20260901092003 | 11 | 225 | 8.0 | 12.9 | 0.00 | 0.00 | 0.00 | 77 | 1013.8 |
| 20260901091503 | 11 | 225 | 6.4 | 11.3 | 0.00 | 0.00 | 0.00 | 77 | 1013.8 |
| 20260901091003 | 11 | 225 | 6.4 | 14.5 | 0.00 | 0.00 | 0.00 | 77 | 1013.7 |
| 20260901090503 | 11 | 225 | 9.7 | 19.3 | 0.00 | 0.00 | 0.00 | 77 | 1013.7 |
| 20260901090215 | 11 | 225 | 9.7 | 19.3 | 0.00 | 0.00 | 0.00 | 77 | 1013.8 |
| 20260901085503 | 11 | 224 | 8.0 | 17.7 | 0.00 | 0.00 | 0.00 | 77 | 1013.8 |
| 20260901085003 | 11 | 224 | 6.4 | 12.9 | 0.00 | 0.00 | 0.00 | 77 | 1013.7 |
| 20260901084503 | 11 | 224 | 6.4 | 12.9 | 0.00 | 0.00 | 0.00 | 77 | 1013.7 |
| 20260901084003 | 11 | 224 | 4.8 | 9.7 | 0.00 | 0.00 | 0.00 | 77 | 1013.7 |
| 20260901083715 | 11 | 224 | 4.8 | 8.0 | 0.00 | 0.00 | 0.00 | 77 | 1013.8 |
| 20260901083003 | 11 | 224 | 4.8 | 9.7 | 0.00 | 0.00 | 0.00 | 77 | 1013.6 |
| 20260901082503 | 11 | 224 | 6.4 | 12.9 | 0.00 | 0.00 | 0.00 | 77 | 1013.6 |
| 20260901082003 | 11 | 224 | 8.0 | 12.9 | 0.00 | 0.00 | 0.00 | 77 | 1013.7 |
| 20260901081503 | 11 | 224 | 8.0 | 12.9 | 0.00 | 0.00 | 0.00 | 77 | 1013.6 |
| 20260901081003 | 11 | 224 | 8.0 | 14.5 | 0.00 | 0.00 | 0.00 | 77 | 1013.7 |
| 20260901080503 | 11 | 224 | 8.0 | 14.5 | 0.00 | 0.00 | 0.00 | 77 | 1013.7 |
| 20260901080003 | 11 | 224 | 8.0 | 12.9 | 0.00 | 0.00 | 0.00 | 77 | 1013.8 |
| 20260901075503 | 11 | 224 | 8.0 | 12.9 | 0.00 | 0.00 | 0.00 | 77 | 1013.7 |
| 20260901075003 | 11 | 224 | 8.0 | 12.9 | 0.00 | 0.00 | 0.00 | 77 | 1013.6 |
| 20260901074503 | 11 | 224 | 6.4 | 11.3 | 0.00 | 0.00 | 0.00 | 77 | 1013.7 |
| 20260901074003 | 11 | 224 | 4.8 | 9.7 | 0.00 | 0.00 | 0.00 | 77 | 1013.7 |
| 20260901073503 | 11 | 224 | 6.4 | 9.7 | 0.00 | 0.00 | 0.00 | 77 | 1013.8 |
| 20260901073214 | 11 | 224 | 6.4 | 14.5 | 0.00 | 0.00 | 0.00 | 77 | 1013.8 |
| 20260901072503 | 11 | 224 | 6.4 | 14.5 | 0.00 | 0.00 | 0.00 | 77 | 1013.9 |
| 20260901072003 | 11 | 224 | 6.4 | 12.9 | 0.00 | 0.00 | 0.00 | 77 | 1013.9 |
| 20260901071503 | 10 | 224 | 8.0 | 12.9 | 0.00 | 0.00 | 0.00 | 77 | 1013.9 |
| 20260901071003 | 10 | 224 | 6.4 | 12.9 | 0.00 | 0.00 | 0.00 | 77 | 1013.9 |
| 20260901070713 | 10 | 224 | 8.0 | 17.7 | 0.00 | 0.00 | 0.00 | 77 | 1013.9 |
| 20260901070222 | 11 | 224 | 9.7 | 17.7 | 0.00 | 0.00 | 0.00 | 77 | 1013.8 |
| 20260901065503 | 11 | 224 | 6.4 | 14.5 | 0.00 | 0.00 | 0.00 | 77 | 1013.8 |
| 20260901065003 | 11 | 224 | 4.8 | 14.5 | 0.00 | 0.00 | 0.00 | 77 | 1013.8 |
| 20260901064503 | 11 | 224 | 6.4 | 14.5 | 0.00 | 0.00 | 0.00 | 77 | 1013.8 |
| 20260901064003 | 11 | 224 | 6.4 | 14.5 | 0.00 | 0.00 | 0.00 | 77 | 1014.0 |
| 20260901063503 | 11 | 224 | 4.8 | 9.7 | 0.00 | 0.00 | 0.00 | 77 | 1014.0 |
| 20260901063003 | 10 | 224 | 4.8 | 9.7 | 0.00 | 0.00 | 0.00 | 77 | 1014.0 |
| 20260901062503 | 10 | 224 | 6.4 | 12.9 | 0.00 | 0.00 | 0.00 | 77 | 1014.0 |
| 20260901062215 | 10 | 224 | 6.4 | 12.9 | 0.00 | 0.00 | 0.00 | 77 | 1014.0 |
| 20260901061503 | 10 | 224 | 6.4 | 12.9 | 0.00 | 0.00 | 0.00 | 77 | 1013.9 |
| 20260901061216 | 10 | 224 | 8.0 | 12.9 | 0.00 | 0.00 | 0.00 | 77 | 1013.9 |
| 20260901060503 | 10 | 224 | 8.0 | 17.7 | 0.00 | 0.00 | 0.00 | 77 | 1013.9 |
| 20260901060217 | 10 | 224 | 9.7 | 17.7 | 0.00 | 0.00 | 0.00 | 78 | 1014.0 |
| 20260901055503 | 10 | 224 | 8.0 | 14.5 | 0.00 | 0.00 | 0.00 | 78 | 1014.1 |
| 20260901055003 | 10 | 224 | 9.7 | 19.3 | 0.00 | 0.00 | 0.00 | 78 | 1014.1 |
| 20260901054503 | 10 | 224 | 9.7 | 19.3 | 0.00 | 0.00 | 0.00 | 78 | 1014.1 |
| 20260901054003 | 10 | 225 | 9.7 | 16.1 | 0.00 | 0.00 | 0.00 | 78 | 1014.1 |
| 20260901053503 | 10 | 225 | 8.0 | 12.9 | 0.00 | 0.00 | 0.00 | 78 | 1014.1 |
| 20260901053003 | 10 | 225 | 9.7 | 17.7 | 0.00 | 0.00 | 0.00 | 78 | 1014.1 |
| 20260901052713 | 10 | 225 | 9.7 | 17.7 | 0.00 | 0.00 | 0.00 | 78 | 1014.1 |
| 20260901052004 | 10 | 225 | 9.7 | 16.1 | 0.00 | 0.00 | 0.00 | 78 | 1014.0 |
| 20260901051503 | 10 | 225 | 8.0 | 17.7 | 0.00 | 0.00 | 0.00 | 78 | 1014.0 |
| 20260901051003 | 10 | 226 | 9.7 | 17.7 | 0.00 | 0.00 | 0.00 | 78 | 1013.9 |
| 20260901050715 | 10 | 226 | 9.7 | 17.7 | 0.00 | 0.00 | 0.00 | 78 | 1013.8 |
| 20260901050003 | 10 | 224 | 11.3 | 22.5 | 0.00 | 0.00 | 0.00 | 78 | 1013.7 |
| 20260901045503 | 10 | 222 | 12.9 | 22.5 | 0.00 | 0.00 | 0.00 | 77 | 1013.7 |
| 20260901045003 | 10 | 220 | 12.9 | 20.9 | 0.00 | 0.00 | 0.00 | 77 | 1013.6 |
| 20260901044505 | 11 | 217 | 11.3 | 20.9 | 0.00 | 0.00 | 0.00 | 78 | 1013.6 |
| 20260901044003 | 11 | 216 | 9.7 | 17.7 | 0.00 | 0.00 | 0.00 | 78 | 1013.6 |
| 20260901043503 | 11 | 216 | 8.0 | 12.9 | 0.00 | 0.00 | 0.00 | 78 | 1013.6 |
| 20260901043003 | 11 | 216 | 8.0 | 12.9 | 0.00 | 0.00 | 0.00 | 78 | 1013.5 |
| 20260901042503 | 11 | 216 | 8.0 | 12.9 | 0.00 | 0.00 | 0.00 | 78 | 1013.5 |
| 20260901042003 | 11 | 216 | 8.0 | 12.9 | 0.00 | 0.00 | 0.00 | 78 | 1013.4 |
| 20260901041503 | 11 | 216 | 6.4 | 14.5 | 0.00 | 0.00 | 0.00 | 78 | 1013.4 |
| 20260901041212 | 11 | 216 | 8.0 | 14.5 | 0.00 | 0.00 | 0.00 | 78 | 1013.4 |
| 20260901040503 | 11 | 216 | 8.0 | 12.9 | 0.00 | 0.00 | 0.00 | 78 | 1013.4 |
| 20260901040003 | 11 | 216 | 8.0 | 17.7 | 0.00 | 0.00 | 0.00 | 78 | 1013.3 |
| 20260901035716 | 11 | 216 | 9.7 | 19.3 | 0.00 | 0.00 | 0.00 | 78 | 1013.4 |
| 20260901035003 | 11 | 216 | 9.7 | 19.3 | 0.00 | 0.00 | 0.00 | 78 | 1013.2 |
| 20260901034503 | 11 | 216 | 11.3 | 19.3 | 0.00 | 0.00 | 0.00 | 78 | 1013.3 |
| 20260901034003 | 11 | 216 | 9.7 | 19.3 | 0.00 | 0.00 | 0.00 | 78 | 1013.2 |
| 20260901033713 | 11 | 216 | 9.7 | 19.3 | 0.00 | 0.00 | 0.00 | 78 | 1013.1 |
| 20260901033003 | 11 | 216 | 8.0 | 14.5 | 0.00 | 0.00 | 0.00 | 78 | 1013.1 |
| 20260901032503 | 11 | 216 | 8.0 | 14.5 | 0.00 | 0.00 | 0.00 | 93 | 1013.0 |
| 20260901032003 | 11 | 216 | 9.7 | 14.5 | 0.00 | 0.00 | 0.00 | 93 | 1012.9 |
| 20260901031715 | 11 | 216 | 9.7 | 17.7 | 0.00 | 0.00 | 0.00 | 78 | 1012.9 |
| 20260901031003 | 11 | 216 | 9.7 | 17.7 | 0.00 | 0.00 | 0.00 | 78 | 1012.9 |
| 20260901030716 | 11 | 216 | 9.7 | 16.1 | 0.00 | 0.00 | 0.00 | 77 | 1012.9 |
| 20260901030004 | 11 | 216 | 9.7 | 17.7 | 0.00 | 0.00 | 0.00 | 77 | 1012.9 |
| 20260901025717 | 11 | 216 | 9.7 | 17.7 | 0.00 | 0.00 | 0.00 | 77 | 1012.8 |
| 20260901025003 | 11 | 216 | 9.7 | 19.3 | 0.00 | 0.00 | 0.00 | 77 | 1012.8 |
| 20260901024503 | 11 | 216 | 11.3 | 20.9 | 0.00 | 0.00 | 0.00 | 77 | 1012.8 |
| 20260901024003 | 11 | 216 | 9.7 | 20.9 | 0.00 | 0.00 | 0.00 | 77 | 1012.7 |
| 20260901023503 | 11 | 216 | 9.7 | 19.3 | 0.00 | 0.00 | 0.00 | 77 | 1012.8 |
| 20260901023003 | 11 | 216 | 9.7 | 19.3 | 0.00 | 0.00 | 0.00 | 77 | 1012.8 |
| 20260901022503 | 11 | 216 | 9.7 | 16.1 | 0.00 | 0.00 | 0.00 | 77 | 1012.8 |
| 20260901022003 | 11 | 216 | 9.7 | 19.3 | 0.00 | 0.00 | 0.00 | 77 | 1012.8 |
| 20260901021503 | 11 | 216 | 9.7 | 19.3 | 0.00 | 0.00 | 0.00 | 77 | 1012.7 |
| 20260901021213 | 11 | 216 | 9.7 | 20.9 | 0.00 | 0.00 | 0.00 | 77 | 1012.7 |
| 20260901020503 | 11 | 216 | 11.3 | 20.9 | 0.00 | 0.00 | 0.00 | 77 | 1012.6 |
| 20260901020003 | 11 | 216 | 11.3 | 22.5 | 0.00 | 0.00 | 0.00 | 77 | 1012.6 |
| 20260901015503 | 11 | 217 | 11.3 | 22.5 | 0.00 | 0.00 | 0.00 | 76 | 1012.5 |
| 20260901015003 | 12 | 217 | 9.7 | 20.9 | 0.00 | 0.00 | 0.00 | 76 | 1012.6 |
| 20260901014503 | 12 | 217 | 9.7 | 20.9 | 0.00 | 0.00 | 0.00 | 76 | 1012.7 |
| 20260901014217 | 12 | 217 | 9.7 | 20.9 | 0.00 | 0.00 | 0.00 | 76 | 1012.7 |
| 20260901013503 | 12 | 218 | 9.7 | 17.7 | 0.00 | 0.00 | 0.00 | 76 | 1012.7 |
| 20260901013212 | 12 | 218 | 9.7 | 17.7 | 0.00 | 0.00 | 0.00 | 76 | 1012.7 |
| 20260901012503 | 12 | 218 | 9.7 | 17.7 | 0.00 | 0.00 | 0.00 | 75 | 1012.6 |
| 20260901012003 | 12 | 218 | 9.7 | 17.7 | 0.00 | 0.00 | 0.00 | 75 | 1012.7 |
| 20260901011503 | 12 | 218 | 11.3 | 17.7 | 0.00 | 0.00 | 0.00 | 75 | 1012.8 |
| 20260901011214 | 12 | 218 | 11.3 | 17.7 | 0.00 | 0.00 | 0.00 | 75 | 1012.8 |
| 20260901010503 | 12 | 218 | 11.3 | 20.9 | 0.00 | 0.00 | 0.00 | 75 | 1012.8 |
| 20260901010003 | 12 | 218 | 11.3 | 20.9 | 0.00 | 0.00 | 0.00 | 75 | 1012.8 |
| 20260901005713 | 12 | 218 | 11.3 | 19.3 | 0.00 | 0.00 | 0.00 | 75 | 1012.7 |
| 20260901005003 | 12 | 218 | 11.3 | 20.9 | 0.00 | 0.00 | 0.00 | 74 | 1012.8 |
| 20260901004503 | 12 | 218 | 12.9 | 20.9 | 0.00 | 0.00 | 0.00 | 86 | 1012.8 |
| 20260901004003 | 13 | 218 | 12.9 | 24.1 | 0.00 | 0.00 | 0.00 | 74 | 1012.7 |
| 20260901003503 | 13 | 217 | 14.5 | 24.1 | 0.00 | 0.00 | 0.00 | 84 | 1012.7 |
| 20260901003003 | 13 | 216 | 12.9 | 20.9 | 0.00 | 0.00 | 0.00 | 83 | 1012.6 |
| 20260901002503 | 14 | 216 | 11.3 | 19.3 | 0.00 | 0.00 | 0.00 | 72 | 1012.6 |
| 20260901002003 | 15 | 216 | 12.9 | 20.9 | 0.00 | 0.00 | 0.00 | 80 | 1012.6 |
| 20260901001503 | 15 | 217 | 12.9 | 20.9 | 0.00 | 0.00 | 0.00 | 71 | 1012.6 |
| 20260901001003 | 15 | 217 | 12.9 | 24.1 | 0.00 | 0.00 | 0.00 | 71 | 1012.5 |
| 20260901000503 | 15 | 218 | 12.9 | 24.1 | 0.00 | 0.00 | 0.00 | 71 | 1012.6 |
| 20260901000003 | 15 | 218 | 12.9 | 25.7 | 0.00 | 0.00 | 0.00 | 70 | 1012.6 |
| 20260831235504 | 16 | 219 | 11.3 | 25.7 | 0.00 | 0.00 | 0.00 | 70 | 1012.6 |
| 20260831235003 | 16 | 219 | 11.3 | 19.3 | 0.00 | 0.00 | 0.00 | 70 | 1012.7 |
| 20260831234503 | 16 | 219 | 12.9 | 19.3 | 0.00 | 0.00 | 0.00 | 70 | 1012.6 |
| 20260831234003 | 16 | 219 | 12.9 | 22.5 | 0.00 | 0.00 | 0.00 | 70 | 1012.6 |
| 20260831233716 | 16 | 220 | 12.9 | 22.5 | 0.00 | 0.00 | 0.00 | 70 | 1012.7 |
| 20260831233003 | 16 | 218 | 12.9 | 22.5 | 0.00 | 0.00 | 0.00 | 70 | 1012.7 |
| 20260831232503 | 16 | 218 | 12.9 | 22.5 | 0.00 | 0.00 | 0.00 | 70 | 1012.8 |
| 20260831232003 | 16 | 221 | 12.9 | 25.7 | 0.00 | 0.00 | 0.00 | 70 | 1012.8 |
| 20260831231503 | 16 | 226 | 12.9 | 25.7 | 0.00 | 0.00 | 0.00 | 70 | 1012.9 |
| 20260831231003 | 16 | 228 | 12.9 | 22.5 | 0.00 | 0.00 | 0.00 | 69 | 1012.8 |
| 20260831230503 | 17 | 228 | 12.9 | 20.9 | 0.00 | 0.00 | 0.00 | 69 | 1012.8 |
| 20260831230004 | 17 | 228 | 12.9 | 20.9 | 0.00 | 0.00 | 0.00 | 69 | 1012.8 |
| 20260831225503 | 17 | 229 | 12.9 | 20.9 | 0.00 | 0.00 | 0.00 | 70 | 1012.9 |
| 20260831225003 | 17 | 230 | 12.9 | 24.1 | 0.00 | 0.00 | 0.00 | 70 | 1013.0 |
| 20260831224503 | 17 | 231 | 14.5 | 24.1 | 0.00 | 0.00 | 0.00 | 69 | 1013.0 |
| 20260831224003 | 17 | 231 | 12.9 | 22.5 | 0.00 | 0.00 | 0.00 | 69 | 1013.0 |
| 20260831223503 | 17 | 231 | 12.9 | 22.5 | 0.00 | 0.00 | 0.00 | 75 | 1013.1 |
| 20260831223214 | 17 | 231 | 11.3 | 20.9 | 0.00 | 0.00 | 0.00 | 76 | 1013.0 |
| 20260831222503 | 16 | 231 | 11.3 | 20.9 | 0.00 | 0.00 | 0.00 | 76 | 1013.0 |
| 20260831222215 | 16 | 231 | 12.9 | 20.9 | 0.00 | 0.00 | 0.00 | 76 | 1013.0 |
| 20260831221713 | 16 | 232 | 11.3 | 20.9 | 0.00 | 0.00 | 0.00 | 76 | 1013.2 |
| 20260831221003 | 16 | 234 | 11.3 | 22.5 | 0.00 | 0.00 | 0.00 | 70 | 1013.1 |
| 20260831220503 | 16 | 236 | 12.9 | 24.1 | 0.00 | 0.00 | 0.00 | 70 | 1013.2 |
| 20260831220003 | 16 | 238 | 12.9 | 24.1 | 0.00 | 0.00 | 0.00 | 78 | 1013.2 |
| 20260831215503 | 16 | 239 | 11.3 | 17.7 | 0.00 | 0.00 | 0.00 | 71 | 1013.3 |
| 20260831215003 | 16 | 239 | 11.3 | 17.7 | 0.00 | 0.00 | 0.00 | 71 | 1013.4 |
| 20260831214503 | 16 | 239 | 11.3 | 17.7 | 0.00 | 0.00 | 0.00 | 71 | 1013.3 |
| 20260831214003 | 16 | 239 | 11.3 | 17.7 | 0.00 | 0.00 | 0.00 | 72 | 1013.4 |
| 20260831213503 | 16 | 239 | 11.3 | 17.7 | 0.00 | 0.00 | 0.00 | 71 | 1013.4 |
| 20260831213003 | 16 | 239 | 11.3 | 19.3 | 0.00 | 0.00 | 0.00 | 72 | 1013.5 |
| 20260831212503 | 16 | 239 | 11.3 | 19.3 | 0.00 | 0.00 | 0.00 | 72 | 1013.5 |
| 20260831212216 | 16 | 239 | 11.3 | 19.3 | 0.00 | 0.00 | 0.00 | 72 | 1013.6 |
| 20260831211714 | 16 | 239 | 11.3 | 19.3 | 0.00 | 0.00 | 0.00 | 72 | 1013.7 |
| 20260831211003 | 16 | 239 | 11.3 | 19.3 | 0.00 | 0.00 | 0.00 | 72 | 1013.7 |
| 20260831210503 | 16 | 239 | 11.3 | 19.3 | 0.00 | 0.00 | 0.00 | 73 | 1013.8 |
| 20260831210213 | 15 | 239 | 11.3 | 17.7 | 0.00 | 0.00 | 0.00 | 74 | 1013.8 |
| 20260831205503 | 15 | 239 | 11.3 | 22.5 | 0.00 | 0.00 | 0.00 | 75 | 1013.8 |
| 20260831205003 | 14 | 239 | 11.3 | 22.5 | 0.00 | 0.00 | 0.00 | 75 | 1013.8 |
| 20260831204503 | 14 | 239 | 11.3 | 19.3 | 0.00 | 0.00 | 0.00 | 75 | 1013.8 |
| 20260831204003 | 14 | 239 | 11.3 | 19.3 | 0.00 | 0.00 | 0.00 | 76 | 1013.8 |
| 20260831203503 | 13 | 240 | 11.3 | 19.3 | 0.00 | 0.00 | 0.00 | 76 | 1013.8 |
| 20260831203003 | 13 | 240 | 11.3 | 20.9 | 0.00 | 0.00 | 0.00 | 76 | 1013.9 |
| 20260831202503 | 14 | 241 | 9.7 | 20.9 | 0.00 | 0.00 | 0.00 | 76 | 1013.8 |
| 20260831202003 | 14 | 242 | 11.3 | 17.7 | 0.00 | 0.00 | 0.00 | 77 | 1013.8 |
| 20260831201503 | 13 | 242 | 11.3 | 17.7 | 0.00 | 0.00 | 0.00 | 76 | 1013.9 |
| 20260831201003 | 14 | 242 | 11.3 | 20.9 | 0.00 | 0.00 | 0.00 | 76 | 1014.0 |
| 20260831200503 | 14 | 242 | 11.3 | 20.9 | 0.00 | 0.00 | 0.00 | 77 | 1013.9 |
| 20260831200003 | 13 | 242 | 9.7 | 16.1 | 0.00 | 0.00 | 0.00 | 77 | 1013.8 |
| 20260831195716 | 13 | 242 | 9.7 | 16.1 | 0.00 | 0.00 | 0.00 | 78 | 1013.7 |
| 20260831195003 | 13 | 242 | 8.0 | 16.1 | 0.00 | 0.00 | 0.00 | 78 | 1013.8 |
| 20260831194503 | 12 | 242 | 8.0 | 16.1 | 0.00 | 0.00 | 0.00 | 79 | 1013.9 |
| 20260831194003 | 12 | 242 | 9.7 | 16.1 | 0.00 | 0.00 | 0.00 | 79 | 1013.9 |
| 20260831193503 | 12 | 242 | 9.7 | 16.1 | 0.00 | 0.00 | 0.00 | 79 | 1014.0 |
| 20260831193003 | 12 | 242 | 8.0 | 14.5 | 0.00 | 0.00 | 0.00 | 79 | 1014.0 |
| 20260831192714 | 12 | 242 | 8.0 | 12.9 | 0.00 | 0.00 | 0.00 | 79 | 1014.2 |
| 20260831192003 | 12 | 242 | 8.0 | 14.5 | 0.00 | 0.00 | 0.00 | 80 | 1014.2 |
| 20260831191503 | 12 | 242 | 8.0 | 14.5 | 0.00 | 0.00 | 0.00 | 79 | 1014.2 |
| 20260831191003 | 12 | 242 | 6.4 | 14.5 | 0.00 | 0.00 | 0.00 | 79 | 1014.1 |
| 20260831190503 | 11 | 242 | 4.8 | 11.3 | 0.00 | 0.00 | 0.00 | 79 | 1014.2 |
| 20260831190214 | 11 | 242 | 6.4 | 11.3 | 0.00 | 0.00 | 0.00 | 79 | 1014.1 |
| 20260831185503 | 11 | 242 | 4.8 | 9.7 | 0.00 | 0.00 | 0.00 | 79 | 1013.9 |
| 20260831185003 | 11 | 242 | 4.8 | 9.7 | 0.00 | 0.00 | 0.00 | 79 | 1013.9 |
| 20260831184713 | 11 | 242 | 6.4 | 9.7 | 0.00 | 0.00 | 0.00 | 79 | 1013.9 |
| 20260831184003 | 11 | 242 | 4.8 | 9.7 | 0.00 | 0.00 | 0.00 | 79 | 1013.9 |
| 20260831183503 | 11 | 242 | 4.8 | 11.3 | 0.00 | 0.00 | 0.00 | 80 | 1013.9 |
| 20260831183003 | 11 | 242 | 8.0 | 12.9 | 0.00 | 0.00 | 0.00 | 80 | 1013.9 |
| 20260831182503 | 11 | 242 | 8.0 | 16.1 | 0.00 | 0.00 | 0.00 | 79 | 1013.9 |
| 20260831182213 | 11 | 242 | 8.0 | 16.1 | 0.00 | 0.00 | 0.00 | 79 | 1013.9 |
| 20260831181716 | 11 | 242 | 8.0 | 14.5 | 0.00 | 0.00 | 0.00 | 79 | 1013.9 |
| 20260831181003 | 11 | 242 | 9.7 | 16.1 | 0.00 | 0.00 | 0.00 | 79 | 1013.8 |
| 20260831180503 | 11 | 242 | 9.7 | 16.1 | 0.00 | 0.00 | 0.00 | 79 | 1013.8 |